This is the latest recevied weather packets stored in our database for station/object ZS2JO. If no packets are shown the sender has not sent any weather packets the latest 10 day(s).
| Time | Temp. | Humidity | Pressure | Rain* | Wind** | Luminosity | Snow |
|---|---|---|---|---|---|---|---|
| 1778162643 | 13.33° C | 99% | 1019.2 hPa | 0.51 mm | - | 144 W/m² | - |
| 1778162342 | 13.33° C | 99% | 1019.2 hPa | 1.78 mm | - | 146 W/m² | - |
| 1778162038 | 13.33° C | 99% | 1019.2 hPa | 1.27 mm | - | 195 W/m² | - |
| 1778161735 | 13.89° C | 99% | 1019.3 hPa | 0 mm | - | 235 W/m² | - |
| 1778161431 | 13.33° C | 99% | 1019 hPa | 0 mm | - | 146 W/m² | - |
| 1778161128 | 13.33° C | 99% | 1018.9 hPa | 0 mm | - | 122 W/m² | - |
| 1778160823 | 13.33° C | 99% | 1018.8 hPa | 0 mm | - | 132 W/m² | - |
| 1778160522 | 13.33° C | 99% | 1019 hPa | 0 mm | - | 141 W/m² | - |
| 1778160218 | 13.89° C | 99% | 1019 hPa | 0 mm | - | 147 W/m² | - |
| 1778159915 | 13.89° C | 99% | 1018.9 hPa | 2.29 mm | - | 320 W/m² | - |
| 1778159612 | 13.33° C | 99% | 1019.2 hPa | 1.78 mm | - | 111 W/m² | - |
| 1778159309 | 13.89° C | 99% | 1018.9 hPa | 3.05 mm | - | 89 W/m² | - |
| 1778159006 | 13.89° C | 99% | 1018.6 hPa | 3.56 mm | - | 427 W/m² | - |
| 1778158705 | 13.33° C | 99% | 1018.9 hPa | 1.78 mm | - | 84 W/m² | - |
| 1778158402 | 13.33° C | 99% | 1018.8 hPa | 1.78 mm | - | 219 W/m² | - |
| 1778158099 | 13.89° C | 99% | 1018.7 hPa | 1.27 mm | - | 76 W/m² | - |
| 1778157795 | 13.89° C | 99% | 1018.6 hPa | 4.32 mm | - | 89 W/m² | - |
| 1778157494 | 13.89° C | 99% | 1018.3 hPa | 2.29 mm | - | 37 W/m² | - |
| 1778157191 | 13.89° C | 99% | 1018.4 hPa | 0 mm | - | 95 W/m² | - |
| 1778156887 | 13.89° C | 99% | 1018.2 hPa | 0 mm | - | 131 W/m² | - |
| 1778156582 | 13.33° C | 99% | 1018.2 hPa | 0 mm | - | 142 W/m² | - |
| 1778156279 | 13.33° C | 99% | 1018.1 hPa | 0 mm | - | 159 W/m² | - |
| 1778155974 | 13.89° C | 99% | 1017.9 hPa | 0.51 mm | - | 86 W/m² | - |
| 1778155671 | 13.89° C | 99% | 1017.9 hPa | 0.51 mm | - | 92 W/m² | - |
| 1778155368 | 13.33° C | 99% | 1018 hPa | 0 mm | - | 100 W/m² | - |
* Rain latest hour (hover to see other rain measurements)
** Current wind speed in m/s (hover to see current wind gust speed)